{"data":{"norad_id":69516,"epoch":"2026-09-20T04:17:46.741344Z","epoch_age_seconds":53228,"freshness":"FRESH","line1":"1 69516U 26133J   26263.17901321  .00015231  00000+0  46096-3 0  9994","line2":"2 69516  53.1563 231.2855 0001846  96.2346 263.8867 15.34401666 16707","mean_motion":15.34401666,"eccentricity":0.0001846,"inclination_deg":53.1563,"raan_deg":231.2855,"arg_perigee_deg":96.2346,"mean_anomaly_deg":263.8867,"bstar":0.00046096,"rev_number":1670,"period_min":93.847656184701,"perigee_km":461.43547031423,"apogee_km":463.96110670275,"semimajor_km":6840.8352885085,"source":"CELESTRAK","updated_at":"2026-09-20T09:00:44.211989Z"}}